Location: Newark
(49.3667°N, 21.6167°E)
Time: 19:52:21
(UTC+00:00)

Envisat - Pass Details

Date: 12 December 2019
Orbit: 764 x 766 km, 98.1° (Epoch: 28 January)

Event Time Altitude Azimuth Distance (km) Brightness Sun altitude
Rises 16:22:12 0° 166° (SSE) 3,221 6.3 -16.5°
Reaches altitude 10° 16:24:29 10° 167° (SSE) 2,299 5.5 -16.9°
Maximum altitude 16:29:34 84° 255° (WSW) 778 3.0 -17.7°
Drops below altitude 10° 16:34:42 10° 345° (NNW) 2,317 5.5 -18.5°
Sets 16:37:01 0° 346° (NNW) 3,247 6.3 -18.9°
